Location: Proctor
(47.8934°N, 114.3048°W)
Time: 04:16:35
(UTC+00:00)

AO-73 - Pass Details

Date: 03 July 2022
Orbit: 579 x 657 km, 97.6° (Epoch: 09 August)

Event Time Altitude Azimuth Distance (km) Brightness Sun altitude
Rises 10:59:27 0° 22° (NNE) 2,966 ? -6.4°
Reaches altitude 10° 11:01:54 10° 33° (NNE) 2,060 ? -6.1°
Maximum altitude 11:05:51 30° 95° (E) 1,177 ? -5.7°
Drops below altitude 10° 11:09:50 10° 156° (SSE) 2,065 ? -5.2°
Sets 11:12:17 0° 168° (SSE) 2,973 ? -4.9°
